Regional Weather Roundup
Issued by NWS

Home | Current Version | Previous Version | Text Only | Print | Product List | Glossary On
Versions: 1 2 3 4 5 6 7 8 9 10 11 12 13 14 15 16 17 18 19 20 21 22 23 24 25 26 27 28 29 30 31 32 33 34 35 36 37 38 39 40 41 42 43 44 45 46 47 48 49 50
000
ASCA42 TJSJ 190510
RWRPR
PUERTO RICO/U.S. VIRGIN ISLANDS HOURLY WEATHER ROUNDUP
NATIONAL WEATHER SERVICE SAN JUAN PR
100 AM AST THU OCT 19 2017

PRZ001>002-007>008-010-190600-
PUERTO RICO

CITY           SKY/WX    TMP DP  RH WIND       PRES   REMARKS
SAN JUAN LMM   PTCLDY    81  79  94 E10       30.00F
PONCE          MOCLDY    77  70  78 VRB2      29.99F FOG
AGUADILLA      CLEAR     77  73  88 SE5       30.02F
$$

VIZ001>002-190600-
U.S. VIRGIN ISLANDS

CITY           SKY/WX    TMP DP  RH WIND       PRES   REMARKS
CHARLOTTE AMA    N/A     82  72  69 VRB6      30.00F
$$

HOURLY WEATHER ROUNDUP FOR THE NEWS MEDIA

CITY           SKY/WX    TMP DP  RH WIND       PRES   REMARKS
NEW YORK       CLEAR     56  51  84 SW7       30.29S
NEWARK         CLEAR     57  46  66 SW8       30.28S
CHICAGO        PTCLDY    61  44  53 SW14G20   30.03F
HARTFORD       FOG       46  45  96 CALM      30.26F VSB 1/2
BOSTON         CLEAR     54  47  77 S8        30.25F
DALLAS         MOCLDY    67  46  47 S12       30.11S
PHILADELPHIA   CLEAR     57  47  69 SW7       30.30F
LOS ANGELES    CLEAR     69  55  60 SW7       29.91R
WASHINGTON DC  PTCLDY    46  44  93 S5        30.30S


USA.gov is the U.S. government's official web portal to all federal, state and local government web resources and services.